SFR303 FALA-FACT

Flight info

Callsign SFR303
Flight time 2h 5m
Altitude 32000
Route XAGEN UZ31 XALVA UQ23 DUMDO DCT ERDAS ERDAS1B
Aircraft B738/M-SDGIJ1LRWY/SB1

Departure

Time 2026-05-06 14:58
Airport Lanseria International Airport (FALA)

Arrival

Time 2026-05-06 17:03
Airport Cape Town International Airport (FACT)
Time Latitude Longitude Altitude Speed Heading
2026-05-06 14:15 -25.93556 27.92598 4484 ft 0 kts 317°
2026-05-06 14:48 -25.93564 27.92605 4484 ft 2 kts 317°
2026-05-06 14:49 -25.93575 27.92617 4483 ft 2 kts 322°
2026-05-06 14:49 -25.93589 27.92624 4483 ft 2 kts 346°
2026-05-06 14:49 -25.93604 27.92626 4482 ft 2 kts
2026-05-06 14:49 -25.93619 27.92623 4482 ft 2 kts 24°
2026-05-06 14:50 -25.93632 27.92614 4482 ft 1 kts 42°
2026-05-06 14:50 -25.93636 27.92609 4482 ft 1 kts 50°
2026-05-06 14:50 -25.93638 27.92607 4482 ft 0 kts 47°
2026-05-06 14:52 -25.93632 27.92614 4482 ft 5 kts 46°
2026-05-06 14:52 -25.93584 27.92671 4482 ft 13 kts 50°
2026-05-06 14:53 -25.93527 27.92757 4476 ft 14 kts 87°
2026-05-06 14:53 -25.93478 27.92883 4467 ft 24 kts 50°
2026-05-06 14:53 -25.93347 27.93038 4455 ft 21 kts 47°
2026-05-06 14:53 -25.93249 27.93159 4447 ft 23 kts 48°
2026-05-06 14:54 -25.93127 27.93305 4438 ft 20 kts 44°
2026-05-06 14:54 -25.93030 27.93423 4432 ft 21 kts 48°
2026-05-06 14:54 -25.92931 27.93542 4424 ft 18 kts 47°
2026-05-06 14:54 -25.92867 27.93642 4417 ft 13 kts 88°
2026-05-06 14:55 -25.92898 27.93702 4410 ft 0 kts 138°
2026-05-06 14:56 -25.92907 27.93711 4408 ft 8 kts 139°
2026-05-06 14:56 -25.92986 27.93742 4402 ft 14 kts 190°
2026-05-06 14:56 -25.93050 27.93688 4405 ft 9 kts 229°
2026-05-06 14:57 -25.93129 27.93592 4410 ft 37 kts 229°
2026-05-06 14:57 -25.93459 27.93186 4441 ft 100 kts 227°
2026-05-06 14:57 -25.94078 27.92446 4478 ft 155 kts 226°
2026-05-06 14:57 -25.94896 27.91514 4796 ft 176 kts 230°
2026-05-06 14:58 -25.95811 27.90477 5283 ft 193 kts 227°
2026-05-06 14:58 -25.96768 27.89508 6037 ft 182 kts 226°
2026-05-06 14:58 -25.97846 27.88438 5850 ft 233 kts 227°
2026-05-06 14:58 -25.98965 27.87042 6337 ft 245 kts 236°
2026-05-06 14:59 -25.99685 27.85382 7244 ft 235 kts 262°
2026-05-06 14:59 -25.99654 27.83549 7806 ft 245 kts 278°
2026-05-06 14:59 -25.99469 27.81611 8328 ft 259 kts 270°
2026-05-06 14:59 -25.99666 27.79606 9053 ft 264 kts 261°
2026-05-06 15:00 -26.00016 27.77592 9843 ft 267 kts 260°
2026-05-06 15:00 -26.00347 27.75649 10585 ft 269 kts 261°
2026-05-06 15:00 -26.00667 27.73519 11050 ft 284 kts 262°
2026-05-06 15:00 -26.00974 27.71274 11490 ft 299 kts 262°
2026-05-06 15:01 -26.01283 27.68954 11988 ft 312 kts 262°
2026-05-06 15:01 -26.01606 27.66527 12700 ft 317 kts 262°
2026-05-06 15:01 -26.01935 27.64085 13482 ft 319 kts 262°
2026-05-06 15:01 -26.02266 27.61633 14265 ft 321 kts 262°
2026-05-06 15:02 -26.02598 27.59177 14815 ft 325 kts 262°
2026-05-06 15:02 -26.02939 27.56647 15040 ft 327 kts 262°
2026-05-06 15:02 -26.03276 27.54137 15053 ft 326 kts 262°
2026-05-06 15:02 -26.03612 27.51626 15192 ft 334 kts 262°
2026-05-06 15:03 -26.03950 27.49099 16152 ft 328 kts 262°
2026-05-06 15:03 -26.04286 27.46575 16940 ft 327 kts 262°
2026-05-06 15:03 -26.04619 27.44079 17573 ft 331 kts 262°
2026-05-06 15:03 -26.04962 27.41497 18238 ft 333 kts 262°
2026-05-06 15:04 -26.05300 27.38955 18911 ft 333 kts 263°
2026-05-06 15:04 -26.05654 27.36407 19554 ft 334 kts 263°
2026-05-06 15:04 -26.06140 27.33830 20217 ft 336 kts 258°
2026-05-06 15:04 -26.06984 27.31385 20794 ft 345 kts 249°
2026-05-06 15:05 -26.08311 27.29101 21334 ft 356 kts 240°
2026-05-06 15:05 -26.09918 27.26993 21937 ft 360 kts 237°
2026-05-06 15:05 -26.11668 27.24889 22538 ft 362 kts 236°
2026-05-06 15:05 -26.13398 27.22842 22875 ft 368 kts 237°
2026-05-06 15:06 -26.15168 27.20734 23352 ft 371 kts 237°
2026-05-06 15:06 -26.16943 27.18597 23912 ft 372 kts 237°
2026-05-06 15:06 -26.18692 27.16469 24356 ft 374 kts 237°
2026-05-06 15:06 -26.20470 27.14294 24845 ft 376 kts 238°
2026-05-06 15:07 -26.22241 27.12111 25238 ft 380 kts 237°
2026-05-06 15:07 -26.24015 27.09920 25780 ft 379 kts 238°
2026-05-06 15:07 -26.25795 27.07714 26023 ft 387 kts 238°
2026-05-06 15:07 -26.27628 27.05437 26549 ft 386 kts 238°
2026-05-06 15:08 -26.29435 27.03196 26968 ft 388 kts 238°
2026-05-06 15:08 -26.31256 27.00938 27358 ft 390 kts 237°
2026-05-06 15:08 -26.33080 26.98673 27768 ft 392 kts 238°
2026-05-06 15:08 -26.34939 26.96354 27958 ft 399 kts 238°
2026-05-06 15:09 -26.36823 26.93997 28273 ft 403 kts 237°
2026-05-06 15:09 -26.38695 26.91667 28723 ft 403 kts 238°
2026-05-06 15:09 -26.40571 26.89333 29091 ft 404 kts 238°
2026-05-06 15:09 -26.42479 26.86969 29615 ft 401 kts 238°
2026-05-06 15:10 -26.44377 26.84679 30198 ft 397 kts 237°
2026-05-06 15:10 -26.46247 26.82471 30771 ft 391 kts 237°
2026-05-06 15:10 -26.48143 26.80242 30987 ft 395 kts 237°
2026-05-06 15:10 -26.50036 26.78008 31301 ft 395 kts 236°
2026-05-06 15:11 -26.51935 26.75775 31784 ft 391 kts 236°
2026-05-06 15:11 -26.53807 26.73566 32018 ft 392 kts 236°
2026-05-06 15:11 -26.55661 26.71366 32034 ft 392 kts 237°
2026-05-06 15:12 -26.59410 26.66904 32033 ft 391 kts 237°
2026-05-06 15:12 -26.63143 26.62476 32032 ft 386 kts 237°
2026-05-06 15:13 -26.66837 26.58072 32035 ft 391 kts 237°
2026-05-06 15:13 -26.70558 26.53631 32028 ft 387 kts 236°
2026-05-06 15:14 -26.74273 26.49191 32033 ft 389 kts 236°
2026-05-06 15:14 -26.77961 26.44791 32027 ft 386 kts 236°
2026-05-06 15:15 -26.81657 26.40371 32030 ft 389 kts 236°
2026-05-06 15:15 -26.85368 26.35931 32030 ft 387 kts 235°
2026-05-06 15:16 -26.89073 26.31486 32030 ft 390 kts 236°
2026-05-06 15:16 -26.92769 26.27052 32031 ft 386 kts 236°
2026-05-06 15:17 -26.96443 26.22631 32026 ft 387 kts 235°
2026-05-06 15:17 -27.00145 26.18182 32032 ft 388 kts 236°
2026-05-06 15:18 -27.03826 26.13746 32027 ft 387 kts 235°
2026-05-06 15:18 -27.07535 26.09279 32030 ft 390 kts 236°
2026-05-06 15:19 -27.11235 26.04821 32022 ft 388 kts 236°
2026-05-06 15:19 -27.14920 26.00374 32025 ft 387 kts 236°
2026-05-06 15:20 -27.18592 25.95931 32024 ft 386 kts 236°
2026-05-06 15:20 -27.22261 25.91486 32022 ft 388 kts 235°
2026-05-06 15:21 -27.25942 25.86998 32016 ft 388 kts 236°
2026-05-06 15:21 -27.29609 25.82530 32019 ft 388 kts 236°
2026-05-06 15:22 -27.33283 25.78046 32018 ft 390 kts 236°
2026-05-06 15:22 -27.36989 25.73538 32017 ft 389 kts 235°
2026-05-06 15:23 -27.40649 25.69086 32018 ft 388 kts 235°
2026-05-06 15:23 -27.44348 25.64581 32013 ft 389 kts 235°
2026-05-06 15:24 -27.48051 25.60071 32011 ft 388 kts 234°
2026-05-06 15:24 -27.51720 25.55596 32014 ft 390 kts 234°
2026-05-06 15:25 -27.55419 25.51076 32011 ft 389 kts 234°
2026-05-06 15:25 -27.59089 25.46590 32010 ft 390 kts 234°
2026-05-06 15:26 -27.62791 25.42059 32009 ft 389 kts 234°
2026-05-06 15:26 -27.66472 25.37549 32007 ft 390 kts 234°
2026-05-06 15:27 -27.70169 25.33016 32010 ft 389 kts 234°
2026-05-06 15:27 -27.73780 25.28583 32005 ft 389 kts 234°
2026-05-06 15:28 -27.77460 25.24059 32006 ft 389 kts 234°
2026-05-06 15:28 -27.81151 25.19520 32056 ft 391 kts 234°
2026-05-06 15:29 -27.84831 25.14988 32019 ft 389 kts 234°
2026-05-06 15:29 -27.88497 25.10467 31994 ft 390 kts 233°
2026-05-06 15:30 -27.92192 25.05905 32002 ft 391 kts 233°
2026-05-06 15:30 -27.95870 25.01359 31985 ft 390 kts 233°
2026-05-06 15:31 -27.99556 24.96797 32004 ft 392 kts 233°
2026-05-06 15:31 -28.03349 24.92309 32013 ft 392 kts 231°
2026-05-06 15:32 -28.09154 24.85703 32009 ft 393 kts 230°
2026-05-06 15:32 -28.13006 24.81297 32002 ft 391 kts 230°
2026-05-06 15:33 -28.16832 24.76895 31992 ft 390 kts 230°
2026-05-06 15:33 -28.20656 24.72482 31994 ft 391 kts 230°
2026-05-06 15:34 -28.24463 24.68081 31989 ft 389 kts 230°
2026-05-06 15:34 -28.28207 24.63748 31997 ft 389 kts 230°
2026-05-06 15:35 -28.32023 24.59325 31996 ft 390 kts 230°
2026-05-06 15:35 -28.35845 24.54889 31986 ft 390 kts 230°
2026-05-06 15:36 -28.39632 24.50492 31983 ft 390 kts 230°
2026-05-06 15:36 -28.43436 24.46071 31975 ft 388 kts 229°
2026-05-06 15:37 -28.47240 24.41643 31979 ft 389 kts 229°
2026-05-06 15:37 -28.51016 24.37244 31974 ft 389 kts 229°
2026-05-06 15:38 -28.54809 24.32819 31981 ft 389 kts 229°
2026-05-06 15:38 -28.58609 24.28380 31967 ft 389 kts 229°
2026-05-06 15:39 -28.62338 24.24021 31977 ft 387 kts 229°
2026-05-06 15:39 -28.66126 24.19589 31974 ft 389 kts 229°
2026-05-06 15:40 -28.69892 24.15177 31957 ft 389 kts 229°
2026-05-06 15:40 -28.73699 24.10711 31948 ft 388 kts 229°
2026-05-06 15:41 -28.77470 24.06284 31960 ft 388 kts 229°
2026-05-06 15:41 -28.81252 24.01837 31940 ft 389 kts 229°
2026-05-06 15:42 -28.84974 23.97459 31945 ft 389 kts 229°
2026-05-06 15:42 -28.88782 23.92972 31945 ft 388 kts 228°
2026-05-06 15:43 -28.92556 23.88521 31951 ft 389 kts 228°
2026-05-06 15:43 -28.96312 23.84088 31946 ft 387 kts 228°
2026-05-06 15:44 -29.00098 23.79611 31939 ft 389 kts 228°
2026-05-06 15:44 -29.03856 23.75164 31952 ft 386 kts 228°
2026-05-06 15:45 -29.07625 23.70698 31940 ft 388 kts 227°
2026-05-06 15:45 -29.11369 23.66258 31957 ft 389 kts 228°
2026-05-06 15:46 -29.15132 23.61791 31950 ft 387 kts 227°
2026-05-06 15:46 -29.18898 23.57314 31956 ft 388 kts 227°
2026-05-06 15:47 -29.22662 23.52837 31958 ft 387 kts 227°
2026-05-06 15:47 -29.26391 23.48395 31956 ft 388 kts 227°
2026-05-06 15:48 -29.30142 23.43922 31955 ft 387 kts 227°
2026-05-06 15:48 -29.33889 23.39447 31955 ft 387 kts 227°
2026-05-06 15:49 -29.37638 23.34965 31950 ft 387 kts 227°
2026-05-06 15:49 -29.41375 23.30494 31948 ft 386 kts 227°
2026-05-06 15:50 -29.45123 23.26002 31958 ft 387 kts 227°
2026-05-06 15:50 -29.48843 23.21540 31963 ft 386 kts 227°
2026-05-06 15:51 -29.52569 23.17067 31959 ft 386 kts 227°
2026-05-06 15:51 -29.56287 23.12599 31965 ft 387 kts 227°
2026-05-06 15:52 -29.60027 23.08098 31969 ft 387 kts 226°
2026-05-06 15:52 -29.63742 23.03623 31966 ft 386 kts 226°
2026-05-06 15:53 -29.67481 22.99113 31965 ft 388 kts 226°
2026-05-06 15:53 -29.71228 22.94588 31962 ft 388 kts 226°
2026-05-06 15:54 -29.74954 22.90080 31963 ft 388 kts 226°
2026-05-06 15:54 -29.78691 22.85557 31967 ft 389 kts 226°
2026-05-06 15:55 -29.82419 22.81035 31958 ft 388 kts 226°
2026-05-06 15:55 -29.86159 22.76496 31959 ft 389 kts 226°
2026-05-06 15:56 -29.89900 22.71949 31966 ft 390 kts 226°
2026-05-06 15:56 -29.93657 22.67377 31965 ft 392 kts 226°
2026-05-06 15:57 -29.97391 22.62828 31980 ft 391 kts 225°
2026-05-06 15:57 -30.01166 22.58227 31964 ft 392 kts 225°
2026-05-06 15:58 -30.04936 22.53625 31974 ft 393 kts 225°
2026-05-06 15:58 -30.08691 22.49036 31977 ft 392 kts 225°
2026-05-06 15:59 -30.12464 22.44421 31977 ft 393 kts 225°
2026-05-06 15:59 -30.16230 22.39807 31981 ft 394 kts 225°
2026-05-06 16:00 -30.19979 22.35211 31990 ft 395 kts 225°
2026-05-06 16:00 -30.23771 22.30558 31995 ft 397 kts 225°
2026-05-06 16:01 -30.27517 22.25955 31981 ft 395 kts 225°
2026-05-06 16:01 -30.31300 22.21297 31972 ft 396 kts 225°
2026-05-06 16:02 -30.35013 22.16719 31976 ft 397 kts 225°
2026-05-06 16:02 -30.38751 22.12109 31980 ft 399 kts 225°
2026-05-06 16:03 -30.42549 22.07421 31980 ft 399 kts 225°
2026-05-06 16:03 -30.46354 22.02717 31990 ft 401 kts 225°
2026-05-06 16:04 -30.50199 21.97957 31989 ft 402 kts 225°
2026-05-06 16:04 -30.54013 21.93227 31986 ft 400 kts 225°
2026-05-06 16:05 -30.57816 21.88505 31989 ft 402 kts 225°
2026-05-06 16:05 -30.61640 21.83757 31997 ft 403 kts 225°
2026-05-06 16:06 -30.65488 21.78976 31992 ft 401 kts 225°
2026-05-06 16:06 -30.69306 21.74216 31995 ft 402 kts 225°
2026-05-06 16:07 -30.73090 21.69458 31995 ft 404 kts 225°
2026-05-06 16:07 -30.76906 21.64648 32002 ft 403 kts 225°
2026-05-06 16:08 -30.80710 21.59851 31996 ft 404 kts 225°
2026-05-06 16:08 -30.84546 21.55005 31999 ft 406 kts 225°
2026-05-06 16:09 -30.88353 21.50192 32000 ft 405 kts 225°
2026-05-06 16:09 -30.92204 21.45319 31998 ft 406 kts 225°
2026-05-06 16:10 -30.96017 21.40486 31999 ft 406 kts 225°
2026-05-06 16:10 -30.99866 21.35602 32001 ft 407 kts 225°
2026-05-06 16:11 -31.03688 21.30743 32006 ft 407 kts 225°
2026-05-06 16:11 -31.07527 21.25857 32011 ft 407 kts 225°
2026-05-06 16:12 -31.11362 21.20971 32017 ft 410 kts 225°
2026-05-06 16:12 -31.15219 21.16050 32018 ft 409 kts 225°
2026-05-06 16:13 -31.19014 21.11201 32020 ft 409 kts 225°
2026-05-06 16:13 -31.22870 21.06269 32022 ft 410 kts 225°
2026-05-06 16:14 -31.26718 21.01342 32029 ft 408 kts 225°
2026-05-06 16:14 -31.30560 20.96414 32028 ft 408 kts 225°
2026-05-06 16:15 -31.34390 20.91498 32030 ft 410 kts 224°
2026-05-06 16:15 -31.38258 20.86528 32028 ft 413 kts 224°
2026-05-06 16:16 -31.42125 20.81551 32031 ft 413 kts 224°
2026-05-06 16:16 -31.46015 20.76540 32035 ft 414 kts 224°
2026-05-06 16:17 -31.49904 20.71524 32038 ft 416 kts 224°
2026-05-06 16:17 -31.53820 20.66465 32043 ft 416 kts 224°
2026-05-06 16:18 -31.57708 20.61432 32037 ft 418 kts 224°
2026-05-06 16:18 -31.61501 20.56515 32046 ft 419 kts 224°
2026-05-06 16:19 -31.65429 20.51417 32039 ft 421 kts 224°
2026-05-06 16:19 -31.69386 20.46278 32046 ft 425 kts 224°
2026-05-06 16:20 -31.73339 20.41138 32045 ft 423 kts 224°
2026-05-06 16:20 -31.77316 20.35958 32050 ft 427 kts 224°
2026-05-06 16:21 -31.81302 20.30752 32057 ft 428 kts 225°
2026-05-06 16:21 -31.85290 20.25537 32058 ft 429 kts 225°
2026-05-06 16:22 -31.89286 20.20308 32058 ft 424 kts 226°
2026-05-06 16:22 -31.93195 20.15183 32072 ft 421 kts 226°
2026-05-06 16:23 -31.97133 20.10013 32061 ft 424 kts 226°
2026-05-06 16:23 -32.01090 20.04816 32072 ft 425 kts 226°
2026-05-06 16:24 -32.05003 19.99669 32077 ft 425 kts 227°
2026-05-06 16:24 -32.08894 19.94544 32079 ft 426 kts 227°
2026-05-06 16:25 -32.12865 19.89306 32082 ft 423 kts 227°
2026-05-06 16:25 -32.16808 19.84101 32096 ft 423 kts 227°
2026-05-06 16:26 -32.20718 19.78931 32085 ft 424 kts 227°
2026-05-06 16:26 -32.24682 19.73686 32086 ft 425 kts 227°
2026-05-06 16:27 -32.28599 19.68493 32088 ft 425 kts 227°
2026-05-06 16:27 -32.32532 19.63270 32082 ft 425 kts 227°
2026-05-06 16:28 -32.36608 19.58179 32078 ft 425 kts 220°
2026-05-06 16:28 -32.39012 19.56126 32078 ft 423 kts 208°
2026-05-06 16:28 -32.41637 19.54637 32080 ft 423 kts 202°
2026-05-06 16:29 -32.47163 19.52183 32076 ft 424 kts 199°
2026-05-06 16:29 -32.52747 19.49883 32074 ft 423 kts 199°
2026-05-06 16:30 -32.56422 19.48345 32076 ft 422 kts 199°
2026-05-06 16:30 -32.63818 19.45177 32073 ft 423 kts 200°
2026-05-06 16:31 -32.69419 19.42738 31985 ft 423 kts 200°
2026-05-06 16:31 -32.72170 19.41535 31705 ft 415 kts 200°
2026-05-06 16:31 -32.74838 19.40367 31441 ft 408 kts 200°
2026-05-06 16:32 -32.77463 19.39261 31188 ft 410 kts 198°
2026-05-06 16:32 -32.80313 19.38351 30917 ft 412 kts 189°
2026-05-06 16:32 -32.83168 19.38059 30652 ft 410 kts 178°
2026-05-06 16:32 -32.85998 19.38219 30389 ft 406 kts 174°
2026-05-06 16:33 -32.88822 19.38567 30123 ft 402 kts 172°
2026-05-06 16:33 -32.91586 19.38985 29854 ft 399 kts 171°
2026-05-06 16:33 -32.94345 19.39420 29597 ft 399 kts 171°
2026-05-06 16:34 -32.99861 19.40264 29090 ft 397 kts 172°
2026-05-06 16:34 -33.02589 19.40661 28834 ft 392 kts 172°
2026-05-06 16:34 -33.05300 19.41047 28580 ft 388 kts 172°
2026-05-06 16:34 -33.07972 19.41423 28327 ft 386 kts 172°
2026-05-06 16:35 -33.10655 19.41796 28073 ft 385 kts 173°
2026-05-06 16:35 -33.13307 19.42162 27818 ft 383 kts 173°
2026-05-06 16:35 -33.15963 19.42529 27561 ft 380 kts 173°
2026-05-06 16:35 -33.18613 19.42791 27303 ft 376 kts 178°
2026-05-06 16:36 -33.21189 19.42626 27049 ft 374 kts 189°
2026-05-06 16:36 -33.23712 19.41779 26795 ft 370 kts 201°
2026-05-06 16:36 -33.25995 19.40411 26545 ft 370 kts 210°
2026-05-06 16:36 -33.28136 19.38672 26292 ft 368 kts 217°
2026-05-06 16:37 -33.30027 19.36577 26033 ft 366 kts 226°
2026-05-06 16:37 -33.31652 19.34274 25784 ft 366 kts 231°
2026-05-06 16:37 -33.33198 19.31849 25530 ft 364 kts 233°
2026-05-06 16:37 -33.34716 19.29392 25275 ft 361 kts 233°
2026-05-06 16:38 -33.36190 19.27007 24945 ft 355 kts 233°
2026-05-06 16:38 -33.37669 19.24636 24524 ft 352 kts 232°
2026-05-06 16:38 -33.39131 19.22311 24095 ft 349 kts 232°
2026-05-06 16:38 -33.40596 19.20019 23655 ft 346 kts 230°
2026-05-06 16:39 -33.42206 19.17842 23260 ft 341 kts 224°
2026-05-06 16:39 -33.43929 19.15909 22834 ft 337 kts 220°
2026-05-06 16:39 -33.45691 19.14091 22410 ft 334 kts 219°
2026-05-06 16:39 -33.47477 19.12292 21979 ft 332 kts 219°
2026-05-06 16:40 -33.49244 19.10508 21553 ft 329 kts 219°
2026-05-06 16:40 -33.50971 19.08747 21139 ft 327 kts 219°
2026-05-06 16:40 -33.52725 19.06944 20708 ft 325 kts 219°
2026-05-06 16:40 -33.54432 19.05179 20257 ft 325 kts 219°
2026-05-06 16:41 -33.56141 19.03409 19892 ft 328 kts 219°
2026-05-06 16:41 -33.57907 19.01578 19442 ft 333 kts 219°
2026-05-06 16:41 -33.59635 18.99780 18994 ft 324 kts 219°
2026-05-06 16:41 -33.61315 18.98022 18477 ft 316 kts 219°
2026-05-06 16:42 -33.62962 18.96294 17775 ft 315 kts 219°
2026-05-06 16:42 -33.64603 18.94571 17134 ft 312 kts 219°
2026-05-06 16:42 -33.66230 18.92865 16515 ft 309 kts 219°
2026-05-06 16:42 -33.67315 18.91725 16137 ft 305 kts 219°
2026-05-06 16:43 -33.69386 18.89547 15666 ft 292 kts 219°
2026-05-06 16:43 -33.70951 18.87905 15363 ft 303 kts 219°
2026-05-06 16:43 -33.72553 18.86226 14939 ft 304 kts 219°
2026-05-06 16:43 -33.74112 18.84587 14601 ft 299 kts 219°
2026-05-06 16:44 -33.75691 18.82924 14229 ft 293 kts 219°
2026-05-06 16:44 -33.77190 18.81345 13943 ft 284 kts 219°
2026-05-06 16:44 -33.78696 18.79761 13571 ft 289 kts 219°
2026-05-06 16:44 -33.80203 18.78173 13220 ft 279 kts 219°
2026-05-06 16:45 -33.81622 18.76671 12934 ft 267 kts 219°
2026-05-06 16:45 -33.83010 18.75201 12626 ft 257 kts 218°
2026-05-06 16:45 -33.84224 18.73700 12484 ft 250 kts 236°
2026-05-06 16:45 -33.84703 18.71665 12430 ft 262 kts 269°
2026-05-06 16:46 -33.84136 18.69547 12173 ft 273 kts 304°
2026-05-06 16:46 -33.82675 18.68138 11926 ft 276 kts 340°
2026-05-06 16:46 -33.80782 18.67910 11692 ft 274 kts 15°
2026-05-06 16:46 -33.78993 18.68721 11436 ft 272 kts 30°
2026-05-06 16:47 -33.77311 18.69733 11189 ft 270 kts 25°
2026-05-06 16:47 -33.75496 18.70425 10943 ft 273 kts 12°
2026-05-06 16:47 -33.73596 18.70692 10700 ft 273 kts
2026-05-06 16:47 -33.71691 18.70591 10453 ft 273 kts 353°
2026-05-06 16:48 -33.69810 18.70183 10206 ft 271 kts 347°
2026-05-06 16:48 -33.67982 18.69614 9959 ft 270 kts 344°
2026-05-06 16:48 -33.66173 18.68979 9717 ft 271 kts 343°
2026-05-06 16:48 -33.64354 18.68320 9469 ft 269 kts 343°
2026-05-06 16:49 -33.62555 18.67667 9222 ft 268 kts 343°
2026-05-06 16:49 -33.60779 18.67026 8976 ft 266 kts 343°
2026-05-06 16:49 -33.58991 18.66383 8729 ft 266 kts 343°
2026-05-06 16:49 -33.57214 18.65746 8473 ft 263 kts 343°
2026-05-06 16:50 -33.55457 18.65117 8086 ft 260 kts 343°
2026-05-06 16:50 -33.53714 18.64493 7664 ft 259 kts 344°
2026-05-06 16:50 -33.51972 18.63868 7258 ft 258 kts 344°
2026-05-06 16:50 -33.50822 18.63455 6985 ft 257 kts 343°
2026-05-06 16:51 -33.48780 18.62042 6410 ft 255 kts 307°
2026-05-06 16:51 -33.47982 18.60219 6000 ft 247 kts 276°
2026-05-06 16:51 -33.48050 18.58215 5566 ft 235 kts 245°
2026-05-06 16:51 -33.48742 18.56489 5187 ft 228 kts 234°
2026-05-06 16:52 -33.49573 18.54841 4748 ft 227 kts 229°
2026-05-06 16:52 -33.50745 18.53680 4285 ft 218 kts 192°
2026-05-06 16:52 -33.52172 18.53722 4095 ft 197 kts 157°
2026-05-06 16:52 -33.53411 18.54340 3887 ft 191 kts 158°
2026-05-06 16:53 -33.54698 18.54712 3641 ft 188 kts 171°
2026-05-06 16:53 -33.55997 18.54727 3406 ft 184 kts 179°
2026-05-06 16:53 -33.57284 18.54624 3156 ft 183 kts 180°
2026-05-06 16:53 -33.58556 18.54518 2978 ft 177 kts 179°
2026-05-06 16:54 -33.59738 18.54421 2981 ft 169 kts 179°
2026-05-06 16:54 -33.60935 18.54330 2988 ft 170 kts 179°
2026-05-06 16:54 -33.62115 18.54236 2987 ft 169 kts 179°
2026-05-06 16:54 -33.62914 18.54171 2989 ft 171 kts 179°
2026-05-06 16:55 -33.64486 18.54043 2987 ft 168 kts 179°
2026-05-06 16:55 -33.65666 18.53948 2989 ft 169 kts 179°
2026-05-06 16:55 -33.66843 18.53852 2989 ft 168 kts 179°
2026-05-06 16:55 -33.68020 18.53760 2991 ft 168 kts 179°
2026-05-06 16:56 -33.69196 18.53667 2990 ft 169 kts 179°
2026-05-06 16:56 -33.70387 18.53578 2993 ft 169 kts 177°
2026-05-06 16:56 -33.71555 18.53615 2989 ft 167 kts 170°
2026-05-06 16:56 -33.72692 18.53812 2986 ft 157 kts 166°
2026-05-06 16:57 -33.73763 18.54053 2989 ft 156 kts 165°
2026-05-06 16:57 -33.74832 18.54298 2991 ft 157 kts 165°
2026-05-06 16:57 -33.75909 18.54547 2990 ft 156 kts 166°
2026-05-06 16:57 -33.76986 18.54802 2991 ft 156 kts 165°
2026-05-06 16:58 -33.78061 18.55035 2995 ft 156 kts 166°
2026-05-06 16:58 -33.79134 18.55218 3034 ft 148 kts 169°
2026-05-06 16:58 -33.80151 18.55359 3047 ft 147 kts 168°
2026-05-06 16:58 -33.81176 18.55524 2985 ft 145 kts 168°
2026-05-06 16:59 -33.82180 18.55705 2950 ft 144 kts 164°
2026-05-06 16:59 -33.83159 18.55957 2891 ft 142 kts 165°
2026-05-06 16:59 -33.84138 18.56188 2779 ft 142 kts 163°
2026-05-06 16:59 -33.85106 18.56474 2601 ft 138 kts 161°
2026-05-06 17:00 -33.86014 18.56805 2370 ft 137 kts 156°
2026-05-06 17:00 -33.86897 18.57149 2141 ft 133 kts 160°
2026-05-06 17:00 -33.87806 18.57441 1928 ft 133 kts 160°
2026-05-06 17:00 -33.88706 18.57723 1724 ft 131 kts 161°
2026-05-06 17:01 -33.89595 18.58000 1624 ft 133 kts 162°
2026-05-06 17:01 -33.90492 18.58280 1411 ft 133 kts 161°
2026-05-06 17:01 -33.91400 18.58562 1195 ft 133 kts 162°
2026-05-06 17:01 -33.92298 18.58852 965 ft 132 kts 162°
2026-05-06 17:02 -33.93178 18.59139 769 ft 130 kts 163°
2026-05-06 17:02 -33.94052 18.59421 592 ft 129 kts 163°
2026-05-06 17:02 -33.94930 18.59682 423 ft 128 kts 165°
2026-05-06 17:02 -33.95796 18.59949 245 ft 126 kts 165°
2026-05-06 17:03 -33.96594 18.60207 158 ft 99 kts 166°
2026-05-06 17:03 -33.97052 18.60354 156 ft 40 kts 161°
2026-05-06 17:03 -33.97321 18.60432 158 ft 41 kts 166°
2026-05-06 17:03 -33.97609 18.60523 154 ft 41 kts 166°
2026-05-06 17:04 -33.97775 18.60455 152 ft 22 kts 281°
2026-05-06 17:04 -33.97749 18.60321 151 ft 8 kts 284°
2026-05-06 17:04 -33.97736 18.60262 151 ft 0 kts 285°
2026-05-06 17:05 -33.97718 18.60211 151 ft 15 kts 308°
2026-05-06 17:05 -33.97619 18.60149 153 ft 15 kts 337°
2026-05-06 17:05 -33.97532 18.60101 155 ft 12 kts 337°
2026-05-06 17:05 -33.97452 18.60070 156 ft 11 kts 341°
2026-05-06 17:06 -33.97368 18.60040 156 ft 15 kts 343°
2026-05-06 17:06 -33.97267 18.60011 157 ft 13 kts 344°
2026-05-06 17:06 -33.97210 18.59969 158 ft 3 kts 278°
2026-05-06 17:06 -33.97218 18.59943 158 ft 2 kts 249°
2026-05-06 17:07 -33.97223 18.59924 158 ft 1 kts 255°
2026-05-06 17:07 -33.97224 18.59915 158 ft 0 kts 254°
2026-05-06 17:07 -33.97226 18.59909 158 ft 0 kts 255°
2026-05-06 17:07 -33.97226 18.59907 158 ft 0 kts 255°